Location: Chiroubles
(46.1812°N, 4.6660°E)
Time: 08:17:03
(UTC+00:00)

Tiros 1 - Pass Details

Date: 29 November 2020
Orbit: 630 x 663 km, 48.4° (Epoch: 16 January)

Event Time Altitude Azimuth Distance (km) Brightness Sun altitude
Rises 16:51:29 0° 264° (W) 2,991 12.3 -9.1°
Reaches altitude 10° 16:53:51 10° 267° (W) 2,077 11.1 -9.5°
Maximum altitude 16:58:38 71° 352° (N) 699 7.3 -10.3°
Enters shadow 17:02:36 15° 75° (ENE) 1,760 8.7 -10.9°
